| time (UTC) | temp F | wind direction | speed knots | gust knots | rain 1hr in | rain 24hr in | rain mn in | humidity % | barometer mb |
| 20260502181044 | 56 | 318 | 3.5 | 5.2 | 0.00 | 0.00 | 0.00 | 34 | 1020.5 |
| 20260502180540 | 56 | 332 | 6.1 | 7.0 | 0.00 | 0.00 | 0.00 | 33 | 1020.5 |
| 20260502170459 | 57 | 2 | 0.9 | 0.9 | 0.00 | 0.00 | 0.00 | 30 | 1020.9 |
| 20260502163943 | 55 | 302 | 6.1 | 8.7 | 0.00 | 0.00 | 0.00 | 33 | 1021.1 |
| 20260502163438 | 54 | 330 | 7.0 | 9.6 | 0.00 | 0.00 | 0.00 | 36 | 1021.1 |
| 20260502162937 | 55 | 12 | 7.0 | 9.6 | 0.00 | 0.00 | 0.00 | 34 | 1021.2 |
| 20260502162433 | 55 | 337 | 4.3 | 5.2 | 0.00 | 0.00 | 0.00 | 36 | 1021.0 |
| 20260502161930 | 55 | 311 | 1.7 | 1.7 | 0.00 | 0.00 | 0.00 | 33 | 1021.2 |
| 20260502161426 | 55 | 7 | 1.7 | 1.7 | 0.00 | 0.00 | 0.00 | 31 | 1021.2 |
| 20260502160924 | 54 | 350 | 2.6 | 3.5 | 0.00 | 0.00 | 0.00 | 35 | 1021.3 |
| 20260502160422 | 54 | 329 | 5.2 | 7.0 | 0.00 | 0.00 | 0.00 | 35 | 1021.3 |
| 20260502151901 | 53 | 309 | 4.3 | 6.1 | 0.00 | 0.00 | 0.00 | 43 | 1021.4 |
| 20260502151356 | 53 | 292 | 5.2 | 7.0 | 0.00 | 0.00 | 0.00 | 44 | 1021.3 |
| 20260502150855 | 53 | 299 | 2.6 | 3.5 | 0.00 | 0.00 | 0.00 | 45 | 1021.4 |
| 20260502150351 | 53 | 58 | 3.5 | 5.2 | 0.00 | 0.00 | 0.00 | 44 | 1021.6 |
| 20260502130739 | 43 | 281 | 2.6 | 2.6 | 0.00 | 0.00 | 0.00 | 79 | 1021.7 |
| 20260502130237 | 42 | 322 | 0.9 | 0.9 | 0.00 | 0.00 | 0.00 | 79 | 1021.7 |
| 20260502123722 | 42 | 332 | 0.0 | 0.0 | 0.00 | 0.00 | 0.00 | 77 | 1021.6 |
| 20260502123219 | 42 | 337 | 0.0 | 0.0 | 0.00 | 0.00 | 0.00 | 76 | 1021.5 |
| 20260502122716 | 43 | 349 | 0.0 | 0.0 | 0.00 | 0.00 | 0.00 | 73 | 1021.5 |
| 20260502122212 | 41 | 331 | 0.0 | 0.0 | 0.00 | 0.00 | 0.00 | 78 | 1021.6 |
| 20260502121711 | 39 | 330 | 0.0 | 0.0 | 0.00 | 0.00 | 0.00 | 80 | 1021.5 |
| 20260502121208 | 39 | 331 | 0.0 | 0.0 | 0.00 | 0.00 | 0.00 | 79 | 1021.4 |
| 20260502120704 | 39 | 332 | 0.0 | 0.0 | 0.00 | 0.00 | 0.00 | 81 | 1021.4 |
| 20260502120201 | 38 | 332 | 0.0 | 0.0 | 0.00 | 0.00 | 0.00 | 84 | 1021.3 |
| 20260502115659 | 36 | 331 | 0.0 | 0.0 | 0.00 | 0.00 | 0.00 | 87 | 1021.3 |
| 20260502115155 | 35 | 331 | 0.0 | 0.0 | 0.00 | 0.00 | 0.00 | 90 | 1021.2 |
| 20260502114651 | 35 | 320 | 0.0 | 0.0 | 0.00 | 0.00 | 0.00 | 91 | 1021.2 |
| 20260502114149 | 34 | 320 | 0.0 | 0.0 | 0.00 | 0.00 | 0.00 | 92 | 1021.1 |
| 20260502113646 | 34 | 316 | 0.0 | 0.0 | 0.00 | 0.00 | 0.00 | 93 | 1021.2 |
| 20260502113144 | 34 | 332 | 0.0 | 0.0 | 0.00 | 0.00 | 0.00 | 94 | 1021.3 |
| 20260502112641 | 33 | 323 | 0.0 | 0.9 | 0.00 | 0.00 | 0.00 | 95 | 1021.0 |
| 20260502112139 | 33 | 328 | 0.0 | 0.9 | 0.00 | 0.00 | 0.00 | 95 | 1021.0 |
| 20260502111636 | 33 | 335 | 0.9 | 0.9 | 0.00 | 0.00 | 0.00 | 95 | 1021.1 |
| 20260502111134 | 33 | 332 | 0.9 | 0.9 | 0.00 | 0.00 | 0.00 | 95 | 1020.8 |
| 20260502110631 | 32 | 327 | 0.0 | 0.0 | 0.00 | 0.00 | 0.00 | 95 | 1021.0 |
| 20260502110128 | 32 | 322 | 0.9 | 0.9 | 0.00 | 0.00 | 0.00 | 95 | 1021.0 |
| 20260502105626 | 32 | 321 | 0.9 | 0.9 | 0.00 | 0.00 | 0.00 | 95 | 1021.0 |
| 20260502105123 | 32 | 327 | 0.9 | 0.9 | 0.00 | 0.00 | 0.00 | 95 | 1021.0 |
| 20260502104620 | 32 | 334 | 0.0 | 0.9 | 0.00 | 0.00 | 0.00 | 95 | 1021.1 |
| 20260502104117 | 32 | 335 | 0.0 | 0.0 | 0.00 | 0.00 | 0.00 | 95 | 1021.0 |
| 20260502103615 | 32 | 335 | 0.9 | 1.7 | 0.00 | 0.00 | 0.00 | 95 | 1021.0 |
| 20260502103113 | 32 | 338 | 0.0 | 0.0 | 0.00 | 0.00 | 0.00 | 95 | 1021.1 |
| 20260502102609 | 32 | 344 | 0.9 | 0.9 | 0.00 | 0.00 | 0.00 | 95 | 1021.1 |
| 20260502102106 | 32 | 334 | 0.0 | 0.9 | 0.00 | 0.00 | 0.00 | 95 | 1021.0 |
| 20260502101604 | 32 | 331 | 0.0 | 0.0 | 0.00 | 0.00 | 0.00 | 95 | 1020.9 |
| 20260502101102 | 32 | 338 | 0.0 | 0.0 | 0.00 | 0.00 | 0.00 | 95 | 1020.9 |
| 20260502100600 | 32 | 338 | 0.0 | 0.9 | 0.00 | 0.00 | 0.00 | 94 | 1021.1 |
| 20260502091032 | 34 | 331 | 0.9 | 0.9 | 0.00 | 0.00 | 0.00 | 93 | 1020.7 |
| 20260502090529 | 34 | 345 | 0.0 | 0.0 | 0.00 | 0.00 | 0.00 | 93 | 1020.5 |
| 20260502071424 | 37 | 337 | 0.9 | 0.9 | 0.00 | 0.00 | 0.00 | 87 | 1020.8 |
| 20260502070922 | 37 | 338 | 0.9 | 0.9 | 0.00 | 0.00 | 0.00 | 87 | 1020.9 |
| 20260502070420 | 37 | 337 | 0.9 | 0.9 | 0.00 | 0.00 | 0.00 | 86 | 1020.8 |
| 20260502065918 | 37 | 334 | 0.0 | 0.0 | 0.00 | 0.00 | 0.00 | 86 | 1021.0 |
| 20260502065416 | 37 | 335 | 0.0 | 0.0 | 0.00 | 0.00 | 0.00 | 85 | 1020.9 |
| 20260502064914 | 38 | 336 | 0.0 | 0.0 | 0.00 | 0.00 | 0.00 | 84 | 1020.9 |
| 20260502064411 | 38 | 336 | 0.0 | 0.0 | 0.00 | 0.00 | 0.00 | 82 | 1020.9 |
| 20260502063908 | 39 | 341 | 0.9 | 0.9 | 0.00 | 0.00 | 0.00 | 79 | 1021.1 |
| 20260502063406 | 39 | 0 | 0.9 | 0.9 | 0.00 | 0.00 | 0.00 | 77 | 1020.9 |
| 20260502062903 | 39 | 347 | 0.0 | 0.0 | 0.00 | 0.00 | 0.00 | 78 | 1021.2 |
| 20260502062400 | 39 | 340 | 0.0 | 0.0 | 0.00 | 0.00 | 0.00 | 78 | 1021.1 |
| 20260502061859 | 39 | 340 | 0.0 | 0.0 | 0.00 | 0.00 | 0.00 | 77 | 1021.0 |
| 20260502061357 | 39 | 342 | 0.0 | 0.9 | 0.00 | 0.00 | 0.00 | 77 | 1021.1 |
| 20260502060852 | 40 | 338 | 0.0 | 0.0 | 0.00 | 0.00 | 0.00 | 77 | 1021.2 |
| 20260502060347 | 40 | 340 | 0.0 | 0.0 | 0.00 | 0.00 | 0.00 | 76 | 1021.1 |
| 20260502055845 | 40 | 346 | 0.0 | 0.0 | 0.00 | 0.00 | 0.00 | 76 | 1021.1 |
| 20260502055343 | 40 | 350 | 0.0 | 0.9 | 0.00 | 0.00 | 0.00 | 76 | 1020.9 |
| 20260502054842 | 40 | 338 | 0.0 | 0.0 | 0.00 | 0.00 | 0.00 | 76 | 1020.9 |
| 20260502054339 | 40 | 353 | 0.9 | 0.9 | 0.00 | 0.00 | 0.00 | 76 | 1021.0 |
| 20260502053837 | 40 | 346 | 0.0 | 0.9 | 0.00 | 0.00 | 0.00 | 75 | 1021.1 |
| 20260502053334 | 41 | 349 | 0.0 | 0.9 | 0.00 | 0.00 | 0.00 | 74 | 1021.0 |
| 20260502052831 | 41 | 9 | 1.7 | 1.7 | 0.00 | 0.00 | 0.00 | 73 | 1021.0 |
| 20260502052329 | 41 | 351 | 0.9 | 0.9 | 0.00 | 0.00 | 0.00 | 74 | 1021.0 |
| 20260502051827 | 41 | 359 | 0.9 | 0.9 | 0.00 | 0.00 | 0.00 | 73 | 1020.8 |
| 20260502051326 | 41 | 1 | 0.9 | 0.9 | 0.00 | 0.00 | 0.00 | 72 | 1020.8 |
| 20260502050821 | 41 | 21 | 0.9 | 0.9 | 0.00 | 0.00 | 0.00 | 72 | 1020.7 |
| 20260502050318 | 42 | 46 | 1.7 | 1.7 | 0.00 | 0.00 | 0.00 | 71 | 1020.7 |
| 20260502045815 | 42 | 348 | 0.0 | 0.9 | 0.00 | 0.00 | 0.00 | 71 | 1020.9 |
| 20260502045312 | 42 | 355 | 0.9 | 0.9 | 0.00 | 0.00 | 0.00 | 70 | 1020.7 |
| 20260502044809 | 42 | 29 | 1.7 | 1.7 | 0.00 | 0.00 | 0.00 | 70 | 1020.7 |
| 20260502044305 | 42 | 39 | 0.9 | 0.9 | 0.00 | 0.00 | 0.00 | 69 | 1020.6 |
| 20260502043802 | 42 | 20 | 0.9 | 0.9 | 0.00 | 0.00 | 0.00 | 69 | 1020.6 |
| 20260502043300 | 42 | 49 | 0.9 | 1.7 | 0.00 | 0.00 | 0.00 | 68 | 1020.5 |
| 20260502042759 | 42 | 52 | 0.9 | 0.9 | 0.00 | 0.00 | 0.00 | 67 | 1020.5 |
| 20260502042256 | 43 | 2 | 0.9 | 0.9 | 0.00 | 0.00 | 0.00 | 67 | 1020.4 |
| 20260502041754 | 43 | 34 | 1.7 | 2.6 | 0.00 | 0.00 | 0.00 | 66 | 1020.2 |
| 20260502041251 | 43 | 54 | 2.6 | 2.6 | 0.00 | 0.00 | 0.00 | 65 | 1020.2 |
| 20260502040748 | 43 | 31 | 0.9 | 0.9 | 0.00 | 0.00 | 0.00 | 64 | 1020.3 |
| 20260502040245 | 43 | 47 | 1.7 | 2.6 | 0.00 | 0.00 | 0.00 | 64 | 1020.3 |
| 20260502035741 | 44 | 13 | 2.6 | 2.6 | 0.00 | 0.00 | 0.00 | 63 | 1020.1 |
| 20260502035238 | 44 | 53 | 0.9 | 1.7 | 0.00 | 0.00 | 0.00 | 63 | 1020.1 |
| 20260502034735 | 44 | 28 | 1.7 | 2.6 | 0.00 | 0.00 | 0.00 | 62 | 1020.1 |
| 20260502034233 | 44 | 15 | 0.9 | 0.9 | 0.00 | 0.00 | 0.00 | 61 | 1020.2 |
| 20260502033731 | 44 | 26 | 0.9 | 0.9 | 0.00 | 0.00 | 0.00 | 61 | 1020.0 |
| 20260502033229 | 44 | 38 | 1.7 | 2.6 | 0.00 | 0.00 | 0.00 | 62 | 1019.9 |
| 20260502032725 | 44 | 2 | 1.7 | 1.7 | 0.00 | 0.00 | 0.00 | 63 | 1020.0 |
| 20260502032221 | 43 | 72 | 3.5 | 5.2 | 0.00 | 0.00 | 0.00 | 67 | 1019.8 |
| 20260502031719 | 42 | 2 | 1.7 | 1.7 | 0.00 | 0.00 | 0.00 | 78 | 1019.9 |
| 20260502031217 | 43 | 340 | 0.0 | 0.9 | 0.00 | 0.00 | 0.00 | 78 | 1019.7 |
| 20260502030716 | 43 | 336 | 0.0 | 0.0 | 0.00 | 0.00 | 0.00 | 75 | 1019.6 |
| 20260502030214 | 44 | 333 | 0.0 | 0.9 | 0.00 | 0.00 | 0.00 | 74 | 1019.5 |
| 20260502025710 | 44 | 329 | 0.9 | 0.9 | 0.00 | 0.00 | 0.00 | 73 | 1019.4 |
| 20260502025208 | 44 | 327 | 0.9 | 0.9 | 0.00 | 0.00 | 0.00 | 74 | 1019.4 |
| 20260502024705 | 44 | 330 | 0.9 | 0.9 | 0.00 | 0.00 | 0.00 | 73 | 1019.1 |
| 20260502024204 | 44 | 335 | 0.0 | 0.0 | 0.00 | 0.00 | 0.00 | 72 | 1019.0 |
| 20260502023701 | 44 | 331 | 0.0 | 0.0 | 0.00 | 0.00 | 0.00 | 71 | 1019.3 |
| 20260502023158 | 45 | 329 | 0.0 | 0.0 | 0.00 | 0.00 | 0.00 | 71 | 1019.1 |
| 20260502022655 | 45 | 324 | 0.9 | 0.9 | 0.00 | 0.00 | 0.00 | 71 | 1018.9 |
| 20260502022152 | 46 | 332 | 0.0 | 0.0 | 0.00 | 0.00 | 0.00 | 71 | 1018.9 |
| 20260502021650 | 46 | 335 | 0.9 | 0.9 | 0.00 | 0.00 | 0.00 | 66 | 1019.0 |
| 20260502021147 | 46 | 348 | 1.7 | 1.7 | 0.00 | 0.00 | 0.00 | 66 | 1018.9 |
| 20260502020644 | 47 | 345 | 0.9 | 0.9 | 0.00 | 0.00 | 0.00 | 65 | 1019.0 |
| 20260502020140 | 47 | 327 | 0.0 | 0.0 | 0.00 | 0.00 | 0.00 | 63 | 1018.9 |
| 20260502015639 | 47 | 319 | 1.7 | 1.7 | 0.00 | 0.00 | 0.00 | 62 | 1018.6 |
| 20260502015134 | 47 | 331 | 0.0 | 0.9 | 0.00 | 0.00 | 0.00 | 63 | 1018.7 |
| 20260502014632 | 48 | 334 | 0.0 | 0.0 | 0.00 | 0.00 | 0.00 | 62 | 1018.6 |
| 20260502014129 | 48 | 344 | 0.0 | 0.9 | 0.00 | 0.00 | 0.00 | 61 | 1018.2 |
| 20260502013625 | 49 | 339 | 0.0 | 0.9 | 0.00 | 0.00 | 0.00 | 57 | 1018.3 |
| 20260502013120 | 50 | 334 | 0.9 | 0.9 | 0.00 | 0.00 | 0.00 | 56 | 1018.3 |
| 20260502012618 | 50 | 326 | 0.9 | 0.9 | 0.00 | 0.00 | 0.00 | 55 | 1018.3 |
| 20260502012116 | 49 | 332 | 0.0 | 0.0 | 0.00 | 0.00 | 0.00 | 56 | 1018.3 |
| 20260502011613 | 50 | 332 | 0.0 | 0.0 | 0.00 | 0.00 | 0.00 | 55 | 1018.1 |
| 20260502011108 | 50 | 340 | 0.9 | 0.9 | 0.00 | 0.00 | 0.00 | 55 | 1018.1 |
| 20260502010606 | 51 | 336 | 0.0 | 0.0 | 0.00 | 0.00 | 0.00 | 53 | 1018.2 |
| 20260502005600 | 51 | 357 | 1.7 | 2.6 | 0.00 | 0.00 | 0.00 | 52 | 1018.3 |
| 20260502005058 | 51 | 0 | 1.7 | 1.7 | 0.00 | 0.00 | 0.00 | 50 | 1018.0 |
| 20260502004553 | 52 | 322 | 0.9 | 1.7 | 0.00 | 0.00 | 0.00 | 50 | 1017.9 |
| 20260502004050 | 52 | 323 | 1.7 | 1.7 | 0.00 | 0.00 | 0.00 | 49 | 1018.0 |
| 20260502003548 | 53 | 348 | 1.7 | 1.7 | 0.00 | 0.00 | 0.00 | 49 | 1018.1 |
| 20260502003045 | 53 | 331 | 0.9 | 1.7 | 0.00 | 0.00 | 0.00 | 49 | 1018.0 |
| 20260502002541 | 53 | 327 | 1.7 | 1.7 | 0.00 | 0.00 | 0.00 | 48 | 1017.9 |
| 20260502002038 | 53 | 357 | 1.7 | 2.6 | 0.00 | 0.00 | 0.00 | 49 | 1017.8 |
| 20260502001536 | 53 | 334 | 2.6 | 3.5 | 0.00 | 0.00 | 0.00 | 49 | 1017.9 |
| 20260502001033 | 53 | 1 | 3.5 | 5.2 | 0.00 | 0.00 | 0.00 | 48 | 1017.7 |
| 20260502000532 | 53 | 3 | 2.6 | 3.5 | 0.00 | 0.00 | 0.00 | 48 | 1017.8 |
| 20260502000028 | 53 | 353 | 2.6 | 3.5 | 0.00 | 0.00 | 0.00 | 48 | 1017.8 |
| 20260501235524 | 53 | 24 | 2.6 | 2.6 | 0.00 | 0.00 | 0.00 | 47 | 1017.9 |
| 20260501235020 | 53 | 357 | 1.7 | 1.7 | 0.00 | 0.00 | 0.00 | 48 | 1017.8 |
| 20260501234516 | 53 | 339 | 1.7 | 2.6 | 0.00 | 0.00 | 0.00 | 48 | 1017.8 |
| 20260501234014 | 53 | 325 | 2.6 | 2.6 | 0.00 | 0.00 | 0.00 | 48 | 1017.7 |
| 20260501233512 | 53 | 319 | 0.9 | 0.9 | 0.00 | 0.00 | 0.00 | 48 | 1017.9 |
| 20260501233009 | 53 | 35 | 3.5 | 3.5 | 0.00 | 0.00 | 0.00 | 49 | 1017.7 |
| 20260501232505 | 53 | 344 | 3.5 | 5.2 | 0.00 | 0.00 | 0.00 | 48 | 1017.8 |
| 20260501232002 | 53 | 326 | 3.5 | 5.2 | 0.00 | 0.00 | 0.00 | 47 | 1017.8 |
| 20260501231500 | 53 | 27 | 1.7 | 2.6 | 0.00 | 0.00 | 0.00 | 48 | 1017.7 |
| 20260501230958 | 53 | 10 | 5.2 | 6.1 | 0.00 | 0.00 | 0.00 | 47 | 1017.8 |
| 20260501230457 | 53 | 341 | 2.6 | 3.5 | 0.00 | 0.00 | 0.00 | 48 | 1017.5 |
| 20260501225954 | 52 | 60 | 3.5 | 5.2 | 0.00 | 0.00 | 0.00 | 50 | 1017.7 |
| 20260501225451 | 53 | 29 | 5.2 | 6.1 | 0.00 | 0.00 | 0.00 | 50 | 1017.7 |
| 20260501224947 | 54 | 344 | 4.3 | 6.1 | 0.00 | 0.00 | 0.00 | 47 | 1017.8 |
| 20260501224445 | 53 | 321 | 2.6 | 3.5 | 0.00 | 0.00 | 0.00 | 42 | 1017.8 |
| 20260501223942 | 54 | 309 | 5.2 | 7.0 | 0.00 | 0.00 | 0.00 | 41 | 1017.8 |
| 20260501223438 | 54 | 326 | 3.5 | 5.2 | 0.00 | 0.00 | 0.00 | 42 | 1018.0 |
| 20260501222933 | 55 | 349 | 3.5 | 5.2 | 0.00 | 0.00 | 0.00 | 42 | 1017.8 |
| 20260501222431 | 54 | 344 | 6.1 | 7.0 | 0.00 | 0.00 | 0.00 | 43 | 1017.9 |
| 20260501221927 | 54 | 339 | 1.7 | 1.7 | 0.00 | 0.00 | 0.00 | 43 | 1017.8 |
| 20260501221424 | 54 | 333 | 5.2 | 6.1 | 0.00 | 0.00 | 0.00 | 42 | 1017.9 |
| 20260501220922 | 56 | 321 | 6.1 | 7.0 | 0.00 | 0.00 | 0.00 | 41 | 1017.7 |
| 20260501220420 | 55 | 326 | 0.0 | 0.0 | 0.00 | 0.00 | 0.00 | 41 | 1017.8 |
| 20260501215915 | 54 | 266 | 2.6 | 2.6 | 0.00 | 0.00 | 0.00 | 43 | 1017.9 |
| 20260501215412 | 54 | 311 | 5.2 | 6.1 | 0.00 | 0.00 | 0.00 | 43 | 1017.9 |
| 20260501214908 | 54 | 5 | 1.7 | 2.6 | 0.00 | 0.00 | 0.00 | 43 | 1017.9 |
| 20260501214403 | 53 | 357 | 3.5 | 5.2 | 0.00 | 0.00 | 0.00 | 44 | 1017.7 |
| 20260501213859 | 53 | 313 | 3.5 | 3.5 | 0.00 | 0.00 | 0.00 | 45 | 1017.7 |
| 20260501213356 | 54 | 313 | 3.5 | 3.5 | 0.00 | 0.00 | 0.00 | 43 | 1017.7 |
| 20260501212851 | 55 | 327 | 7.0 | 8.7 | 0.00 | 0.00 | 0.00 | 42 | 1017.8 |
| 20260501212349 | 54 | 312 | 1.7 | 1.7 | 0.00 | 0.00 | 0.00 | 42 | 1017.8 |
| 20260501211846 | 55 | 326 | 5.2 | 6.1 | 0.00 | 0.00 | 0.00 | 42 | 1017.6 |
| 20260501211343 | 55 | 306 | 2.6 | 5.2 | 0.00 | 0.00 | 0.00 | 42 | 1017.9 |
| 20260501210840 | 54 | 334 | 4.3 | 6.1 | 0.00 | 0.00 | 0.00 | 42 | 1017.9 |
| 20260501210337 | 53 | 359 | 0.9 | 1.7 | 0.00 | 0.00 | 0.00 | 44 | 1017.9 |
| 20260501205833 | 57 | 0 | 4.3 | 5.2 | 0.00 | 0.00 | 0.00 | 42 | 1017.9 |
| 20260501205331 | 55 | 287 | 1.7 | 2.6 | 0.00 | 0.00 | 0.00 | 41 | 1017.9 |
| 20260501204827 | 54 | 313 | 3.5 | 3.5 | 0.00 | 0.00 | 0.00 | 42 | 1018.1 |
| 20260501204324 | 53 | 350 | 2.6 | 2.6 | 0.00 | 0.00 | 0.00 | 44 | 1018.1 |
| 20260501203820 | 53 | 330 | 0.9 | 1.7 | 0.00 | 0.00 | 0.00 | 43 | 1018.1 |
| 20260501203317 | 53 | 296 | 2.6 | 3.5 | 0.00 | 0.00 | 0.00 | 44 | 1018.0 |
| 20260501202814 | 53 | 319 | 1.7 | 1.7 | 0.00 | 0.00 | 0.00 | 44 | 1018.2 |
| 20260501202311 | 53 | 334 | 3.5 | 3.5 | 0.00 | 0.00 | 0.00 | 44 | 1018.2 |
| 20260501201808 | 53 | 309 | 5.2 | 7.0 | 0.00 | 0.00 | 0.00 | 43 | 1018.2 |
| 20260501201304 | 52 | 358 | 2.6 | 2.6 | 0.00 | 0.00 | 0.00 | 43 | 1018.2 |
| 20260501200801 | 53 | 304 | 4.3 | 6.1 | 0.00 | 0.00 | 0.00 | 43 | 1018.2 |
| 20260501200258 | 53 | 332 | 1.7 | 1.7 | 0.00 | 0.00 | 0.00 | 43 | 1018.3 |
| 20260501195756 | 53 | 314 | 1.7 | 1.7 | 0.00 | 0.00 | 0.00 | 43 | 1018.4 |
| 20260501195251 | 53 | 265 | 3.5 | 3.5 | 0.00 | 0.00 | 0.00 | 42 | 1018.2 |
| 20260501194748 | 54 | 290 | 3.5 | 3.5 | 0.00 | 0.00 | 0.00 | 42 | 1018.4 |
| 20260501194244 | 54 | 355 | 2.6 | 2.6 | 0.00 | 0.00 | 0.00 | 43 | 1018.2 |
| 20260501193740 | 54 | 355 | 1.7 | 1.7 | 0.00 | 0.00 | 0.00 | 42 | 1018.2 |
| 20260501193239 | 55 | 352 | 1.7 | 1.7 | 0.00 | 0.00 | 0.00 | 42 | 1018.2 |
| 20260501192736 | 54 | 353 | 1.7 | 1.7 | 0.00 | 0.00 | 0.00 | 43 | 1018.2 |
| 20260501192233 | 53 | 316 | 0.9 | 0.9 | 0.00 | 0.00 | 0.00 | 42 | 1018.1 |
| 20260501191730 | 54 | 227 | 1.7 | 1.7 | 0.00 | 0.00 | 0.00 | 42 | 1018.2 |
| 20260501191227 | 53 | 312 | 2.6 | 2.6 | 0.00 | 0.00 | 0.00 | 41 | 1018.1 |
| 20260501190724 | 55 | 343 | 1.7 | 1.7 | 0.00 | 0.00 | 0.00 | 41 | 1018.3 |
| 20260501190219 | 52 | 315 | 0.9 | 0.9 | 0.00 | 0.00 | 0.00 | 43 | 1018.3 |
| 20260501185715 | 55 | 352 | 3.5 | 5.2 | 0.00 | 0.00 | 0.00 | 41 | 1018.3 |
| 20260501185211 | 55 | 241 | 1.7 | 1.7 | 0.00 | 0.00 | 0.00 | 39 | 1018.3 |
| 20260501184707 | 55 | 317 | 3.5 | 3.5 | 0.00 | 0.00 | 0.00 | 40 | 1018.4 |
| 20260501184202 | 54 | 316 | 0.9 | 1.7 | 0.00 | 0.00 | 0.00 | 40 | 1018.2 |
| 20260501183659 | 58 | 304 | 5.2 | 7.8 | 0.00 | 0.00 | 0.00 | 38 | 1018.2 |
| 20260501183155 | 56 | 292 | 1.7 | 1.7 | 0.00 | 0.00 | 0.00 | 41 | 1018.1 |
| 20260501182652 | 54 | 268 | 1.7 | 1.7 | 0.00 | 0.00 | 0.00 | 44 | 1018.1 |
| 20260501182149 | 54 | 318 | 1.7 | 1.7 | 0.00 | 0.00 | 0.00 | 42 | 1018.3 |
| 20260501181646 | 54 | 295 | 0.9 | 1.7 | 0.00 | 0.00 | 0.00 | 43 | 1018.2 |